Two Harbors, MN

12:28 AM CST on January 20, 2017 (GMT -0600)
Silver Bay Municipal

Weather History for KBFW - August, 2013

Change the Weather History Date:

Wednesday, August 7, 2013

  Actual Average Record
Temperature  
Mean Temperature 51 °F -  
Max Temperature 69 °F 71 °F 87 °F (2005)
Min Temperature 33 °F 46 °F 33 °F (2013)
Degree Days  
Heating Degree Days 14    
Growing Degree Days 1 (Base 50)    
Moisture  
Dew Point 42 °F    
Average Humidity 52    
Maximum Humidity 94    
Minimum Humidity 28    
Precipitation  
Precipitation 0.01 in - - ()
Sea Level Pressure  
Sea Level Pressure 29.92 in    
Wind  
Wind Speed 1 mph (WNW)    
Max Wind Speed 7 mph    
Max Gust Speed -    
Visibility 10 miles    
Events Fog    
Averages and records for this station are not official NWS values.
T = Trace of Precipitation, MM = Missing Value Source: NWS Daily Summary

Daily Weather History Graph

Daily Weather History Graph

Search for Another Location

Airport or City:

Trip Planner

Search our weather history database for the weather conditions in past years. The results will help you decide how hot, cold, wet, or windy it might be!

Date:

Astronomy

Aug. 07, 2013 Rise Set
Actual Time 5:52 AM CDT 8:29 PM CDT
Civil Twilight 5:17 AM CDT 9:04 PM CDT
Nautical Twilight 4:33 AM CDT 9:47 PM CDT
Astronomical Twilight 3:42 AM CDT 10:38 PM CDT
Moon 6:48 AM CDT (8/7) 8:27 PM CDT (8/7)
Length of Visible Light 15h 46m
Length of Day
14h 37m
New Moon, 1% of the Moon is Illuminated
Aug 7
New Moon
Aug 14
First Quarter
Aug 20
Full
Aug 28
Last Quarter
Sep 5
New

Hourly Weather History & Observations

Time (CDT) Temp. Dew Point Humidity Pressure Visibility Wind Dir Wind Speed Gust Speed Precip Events Conditions
12:13 AM 57.2 °F 53.6 °F 88% 29.76 in 10.0 mi Calm Calm - N/A   Scattered Clouds
12:33 AM 55.4 °F 53.6 °F 94% 29.76 in 0.5 mi Calm Calm - N/A Fog Fog
12:53 AM 55.4 °F 53.6 °F 94% 29.76 in 7.0 mi Calm Calm - N/A   Scattered Clouds
1:13 AM 55.4 °F 53.6 °F 94% 29.76 in 10.0 mi Calm Calm - N/A   Mostly Cloudy
1:33 AM 55.4 °F 53.6 °F 94% 29.77 in 10.0 mi Calm Calm - 0.01 in   Mostly Cloudy
8:53 AM 60.8 °F 46.4 °F 59% 29.88 in 10.0 mi Calm Calm - N/A   Clear
9:13 AM 62.6 °F 46.4 °F 55% 29.88 in 10.0 mi Calm Calm - N/A   Clear
9:33 AM 62.6 °F 44.6 °F 52% 29.88 in 10.0 mi Calm Calm - N/A   Clear
9:53 AM 64.4 °F 44.6 °F 49% 29.89 in 10.0 mi Calm Calm - N/A   Clear
10:13 AM 64.4 °F 42.8 °F 45% 29.90 in 10.0 mi Calm Calm - N/A   Clear
10:33 AM 64.4 °F 41.0 °F 42% 29.90 in 10.0 mi NNW 3.5 mph - N/A   Clear
10:53 AM 66.2 °F 39.2 °F 37% 29.91 in 10.0 mi Calm Calm - N/A   Clear
11:13 AM 66.2 °F 37.4 °F 35% 29.91 in 10.0 mi Calm Calm - N/A   Clear
11:33 AM 66.2 °F 39.2 °F 37% 29.91 in 10.0 mi Calm Calm - N/A   Clear
11:53 AM 66.2 °F 39.2 °F 37% 29.91 in 10.0 mi WNW 3.5 mph - N/A   Scattered Clouds
12:13 PM 68.0 °F 39.2 °F 35% 29.92 in 10.0 mi Calm Calm - N/A   Scattered Clouds
12:33 PM 68.0 °F 39.2 °F 35% 29.92 in 10.0 mi Calm Calm - N/A   Scattered Clouds
12:53 PM 68.0 °F 39.2 °F 35% 29.92 in 10.0 mi Calm Calm - N/A   Clear
1:13 PM 69.8 °F 39.2 °F 33% 29.92 in 10.0 mi West 5.8 mph - N/A   Clear
1:33 PM 69.8 °F 39.2 °F 33% 29.92 in 10.0 mi Calm Calm - N/A   Clear
1:53 PM 69.8 °F 37.4 °F 31% 29.92 in 10.0 mi WNW 4.6 mph - N/A   Clear
2:13 PM 69.8 °F 37.4 °F 31% 29.92 in 10.0 mi Calm Calm - N/A   Clear
2:33 PM 69.8 °F 37.4 °F 31% 29.92 in 10.0 mi WNW 3.5 mph - N/A   Clear
2:53 PM 69.8 °F 35.6 °F 28% 29.92 in 10.0 mi Calm Calm - N/A   Clear
3:13 PM 69.8 °F 35.6 °F 28% 29.92 in 10.0 mi Calm Calm - N/A   Clear
3:33 PM 69.8 °F 37.4 °F 31% 29.92 in 10.0 mi WNW 3.5 mph - N/A   Clear
3:53 PM 69.8 °F 37.4 °F 31% 29.93 in 10.0 mi WNW 6.9 mph - N/A   Clear
4:13 PM 69.8 °F 39.2 °F 33% 29.92 in 10.0 mi NW 3.5 mph - N/A   Clear
4:33 PM 68.0 °F 41.0 °F 37% 29.93 in 10.0 mi Calm Calm - N/A   Scattered Clouds
4:53 PM 69.8 °F 37.4 °F 31% 29.93 in 10.0 mi NW 3.5 mph - N/A   Clear
5:13 PM 69.8 °F 37.4 °F 31% 29.93 in 10.0 mi WNW 6.9 mph - N/A   Scattered Clouds
5:33 PM 66.2 °F 39.2 °F 37% 29.93 in 10.0 mi Calm Calm - N/A   Scattered Clouds
5:53 PM 66.2 °F 39.2 °F 37% 29.94 in 10.0 mi WNW 3.5 mph - N/A   Clear
6:13 PM 66.2 °F 39.2 °F 37% 29.94 in 10.0 mi Calm Calm - N/A   Clear
6:33 PM 66.2 °F 39.2 °F 37% 29.94 in 10.0 mi West 4.6 mph - N/A   Clear
6:53 PM 64.4 °F 39.2 °F 40% 29.94 in 10.0 mi Calm Calm - N/A   Clear
7:13 PM 64.4 °F 41.0 °F 42% 29.95 in 10.0 mi Calm Calm - N/A   Scattered Clouds
7:33 PM 62.6 °F 41.0 °F 45% 29.95 in 10.0 mi Calm Calm - N/A   Clear
7:52 PM 62.6 °F 42.8 °F 48% 29.95 in 10.0 mi Calm Calm - N/A   Clear
8:13 PM 57.2 °F 44.6 °F 63% 29.96 in 10.0 mi Calm Calm - N/A   Clear
8:33 PM - - N/A% 29.96 in 10.0 mi Calm Calm - N/A   Clear
8:53 PM 55.4 °F 44.6 °F 67% 29.97 in 10.0 mi Calm Calm - N/A   Clear
9:13 PM 51.8 °F 46.4 °F 82% 29.97 in 10.0 mi Calm Calm - N/A   Clear
9:33 PM 51.8 °F 46.4 °F 82% 29.98 in 10.0 mi Calm Calm - N/A   Unknown
9:53 PM 51.8 °F 44.6 °F 76% 29.98 in 10.0 mi Calm Calm - N/A   Clear
10:13 PM 33.8 °F - N/A% - 10.0 mi Calm Calm - N/A   Clear
10:33 PM 51.8 °F 44.6 °F 76% 29.99 in 10.0 mi Calm Calm - N/A   Clear
10:53 PM 51.8 °F 44.6 °F 76% 29.99 in 10.0 mi Calm Calm - N/A   Unknown
11:13 PM 48.2 °F 44.6 °F 87% 29.99 in 10.0 mi Calm Calm - N/A   Clear
11:33 PM 48.2 °F 44.6 °F 87% 29.99 in 10.0 mi Calm Calm - N/A   Clear
11:53 PM 48.2 °F 44.6 °F 87% 29.99 in 10.0 mi Calm Calm - N/A   Mostly Cloudy